This is the latest recevied weather packets stored in our database for station/object DL4JCP-6. If no packets are shown the sender has not sent any weather packets the latest 1 day(s).
| Time | Temp. | Humidity | Pressure | Rain* | Wind** | Luminosity | Snow |
|---|---|---|---|---|---|---|---|
| 1777991891 | 16.11° C | 87% | 1008.6 hPa | 0.25 mm | 0.89 m/s, 51° | - | - |
| 1777991598 | 16.11° C | 88% | 1008.5 hPa | 0.25 mm | 1.79 m/s, 28° | - | - |
| 1777991590 | 16.11° C | 88% | 1008.5 hPa | 0.25 mm | 1.79 m/s, 28° | - | - |
| 1777991290 | 16.11° C | 88% | 1008.5 hPa | 0.25 mm | 1.34 m/s, 326° | - | - |
| 1777990990 | 15.56° C | 87% | 1008.3 hPa | 0.25 mm | 1.34 m/s, 25° | - | - |
| 1777990695 | 15.56° C | 87% | 1008.4 hPa | 0.51 mm | 1.34 m/s, 20° | - | - |
| 1777990690 | 15.56° C | 87% | 1008.4 hPa | 0.51 mm | 1.34 m/s, 20° | - | - |
| 1777990390 | 15.56° C | 86% | 1008.4 hPa | 0.25 mm | 1.34 m/s, 20° | - | - |
| 1777990090 | 15.56° C | 86% | 1008.5 hPa | 0.25 mm | 0.89 m/s, 79° | - | - |
| 1777989798 | 15.56° C | 85% | 1008.6 hPa | 0.25 mm | 0.89 m/s, 82° | - | - |
| 1777989791 | 15.56° C | 85% | 1008.6 hPa | 0.25 mm | 1.34 m/s, 82° | - | - |
| 1777989491 | 16.11° C | 85% | 1008.6 hPa | 0.25 mm | 0.45 m/s, 87° | - | - |
| 1777989193 | 16.11° C | 84% | 1008.8 hPa | 0.25 mm | 0.89 m/s, 74° | - | - |
| 1777988894 | 16.11° C | 83% | 1008.8 hPa | 0.25 mm | 1.34 m/s, 65° | - | - |
| 1777988891 | 16.11° C | 83% | 1008.8 hPa | 0.25 mm | 1.34 m/s, 65° | - | - |
| 1777988591 | 16.11° C | 84% | 1008.8 hPa | 0.25 mm | 2.24 m/s, 51° | - | - |
| 1777988293 | 16.11° C | 84% | 1008.7 hPa | 0.25 mm | 0.89 m/s, 42° | - | - |
| 1777987994 | 16.11° C | 84% | 1008.7 hPa | 0.25 mm | 1.79 m/s, 68° | - | - |
| 1777987991 | 16.11° C | 84% | 1008.7 hPa | 0.25 mm | 1.79 m/s, 68° | - | - |
| 1777987691 | 16.67° C | 82% | 1008.9 hPa | 0.25 mm | 1.34 m/s, 70° | - | - |
| 1777987392 | 16.67° C | 83% | 1008.9 hPa | 0.25 mm | 1.34 m/s, 61° | - | - |
| 1777987095 | 16.67° C | 81% | 1009.1 hPa | 0 mm | 2.24 m/s, 49° | - | - |
| 1777987091 | 16.67° C | 81% | 1009.1 hPa | 0 mm | 2.68 m/s, 49° | - | - |
| 1777986790 | 16.67° C | 79% | 1009.3 hPa | 0 mm | 2.24 m/s, 70° | - | - |
| 1777986490 | 17.22° C | 79% | 1009.2 hPa | 0 mm | 1.34 m/s, 74° | - | - |
* Rain latest hour (hover to see other rain measurements)
** Current wind speed in m/s (hover to see current wind gust speed)